User: anonymous   Login
Location: ??
(35.5052°N, 139.7262°E)
Time: 20:56:03
(UTC+00:00)
Language:

COSMOS 2251 DEB - Orbit

View from above orbital plane
View from above orbital plane
View from above satellite
View from above satellite

Ground track
Ground track

The orbit data is extracted from the following two-line orbital elements,

1 34845U 93036ABP 22021.05242196  .00000276  00000-0  92354-4 0  9993
2 34845  74.0271 271.7338 0021707  58.7932 301.5347 14.41839209669521
Epoch (UTC): 21 January 2022 01:15:29
Eccentricity: 0.0021707
inclination: 74.0271°
perigee height: 737 km
apogee height: 768 km
right ascension of ascending node: 271.7338°
argument of perigee: 58.7932°
revolutions per day: 14.41839209
mean anomaly at epoch: 301.5347°
orbit number at epoch: 66952

The dashed part of the orbit path shows where the satellite is in the earth's shadow,  

DLR